Pilot No 5 — WDC3840 — position and weather

sailwx.info

Track history (hours):
 
Tides and Currents Weather Stations Pressure Air Temp Water Temp Dewpoint Dewpoint Depression Visibility Wind Speed Wind Dir Waves Ship Positions

Pilot No 5

More information available from US FCC via Universal Licensing System and Coast Guard Vessel Documentation Center.

Last reported at 2014-Jul-21 21:07 UTC. Time now 2014-Jul-23 07:50 UTC.
Position N 26°06' W 080°07'.

Length 6 m.

Type: Pilot. MMSI: 367015090.

Date/timePositionNaut miles runAvg speedWind from/ knotsBaromVisibWave heightAir tempDewpointWater temp
2014-Jul-21 21:07N 26°06' W 080°07'1 1.2
2014-Jul-21 20:33N 26°06' W 080°07'0 0.2
2014-Jul-21 20:18N 26°06' W 080°07'1 0.1
2014-Jul-21 11:28N 26°06' W 080°07'1 0.9
2014-Jul-21 10:33N 26°05' W 080°07'1 0.8
2014-Jul-21 09:33N 26°06' W 080°06'1 0.7
2014-Jul-21 08:33N 26°06' W 080°07'0 0.4
2014-Jul-21 07:33N 26°05' W 080°07'2 2.5
2014-Jul-21 06:33N 26°05' W 080°05'3 0.9
2014-Jul-21 03:33N 26°06' W 080°07'2 2.2
2014-Jul-21 02:33N 26°06' W 080°05'2 1.9
2014-Jul-21 01:33N 26°06' W 080°07'0 0.0
2014-Jul-20 19:33N 26°06' W 080°07'1 0.6
2014-Jul-20 18:33N 26°05' W 080°07'1 0.1
2014-Jul-20 13:33N 26°06' W 080°07'0 0.2
2014-Jul-20 12:33N 26°05' W 080°07'2 1.0
2014-Jul-20 10:33N 26°06' W 080°05'2 1.6
2014-Jul-20 09:33N 26°05' W 080°07'0 0.3
2014-Jul-20 08:34N 26°05' W 080°07'0 0.4
2014-Jul-20 07:32N 26°06' W 080°07'0 0.3
2014-Jul-20 06:33N 26°06' W 080°07'2 2.4
2014-Jul-20 05:33N 26°07' W 080°04'1 0.7
2014-Jul-20 03:33N 26°06' W 080°03'4 0.2
2014-Jul-19 11:28N 26°06' W 080°07'1 0.7
2014-Jul-19 10:34N 26°06' W 080°07'1 0.6
2014-Jul-19 09:33N 26°06' W 080°07'0 0.3
2014-Jul-19 08:33N 26°05' W 080°07'1 1.3
2014-Jul-19 07:33N 26°06' W 080°06'0 0.0
2014-Jul-18 07:33N 26°06' W 080°06'1 0.7
2014-Jul-18 06:33N 26°05' W 080°07'1 0.6
2014-Jul-18 05:33N 26°05' W 080°07'1 1.4
2014-Jul-18 04:33N 26°06' W 080°07'0 0.0
2014-Jul-18 03:33N 26°06' W 080°07'1 0.6
2014-Jul-18 02:34N 26°06' W 080°07'0 0.1
2014-Jul-18 01:34N 26°06' W 080°07'1 0.7
2014-Jul-18 00:33N 26°06' W 080°07'0 0.0
2014-Jul-17 23:33N 26°06' W 080°07'2 2.1
2014-Jul-17 22:33N 26°06' W 080°05'2 1.8
2014-Jul-17 21:33N 26°05' W 080°07'0 0.1
2014-Jul-17 20:33N 26°05' W 080°07'0 0.0
2014-Jul-17 19:33N 26°05' W 080°07'1 1.4
2014-Jul-17 18:33N 26°04' W 080°07'4 4.0
2014-Jul-17 17:33N 26°06' W 080°03'4 3.7
2014-Jul-17 16:33N 26°06' W 080°07'0 0.4
2014-Jul-17 15:33N 26°05' W 080°07'1 0.2
2014-Jul-17 11:29N 26°06' W 080°07'3 3.6
2014-Jul-17 10:33N 26°05' W 080°04'3 2.9
2014-Jul-17 09:33N 26°05' W 080°07'1 0.9
2014-Jul-17 08:33N 26°06' W 080°06'1 0.4
2014-Jul-17 06:33N 26°06' W 080°05'0 0.3
2014-Jul-17 05:33N 26°05' W 080°05'2 2.0
2014-Jul-17 04:33N 26°06' W 080°07'1 1.1
2014-Jul-17 03:34N 26°06' W 080°06'1 1.4
2014-Jul-17 02:33N 26°06' W 080°07'4 4.4
2014-Jul-17 01:33N 26°05' W 080°03'3 3.1
2014-Jul-17 00:33N 26°06' W 080°06'1 1.3
2014-Jul-16 23:34N 26°06' W 080°07'0 0.0
2014-Jul-16 22:33N 26°06' W 080°07'0 0.0
2014-Jul-16 21:33N 26°06' W 080°07'1 0.9
2014-Jul-16 20:33N 26°05' W 080°07'1 0.9
2014-Jul-16 19:33N 26°06' W 080°07'2 1.9
2014-Jul-16 18:33N 26°06' W 080°05'2 0.4
2014-Jul-16 13:32N 26°06' W 080°07'1 0.6
2014-Jul-16 12:34N 26°06' W 080°07'0 0.3
2014-Jul-16 11:33N 26°05' W 080°07'0 0.0
2014-Jul-16 02:33N 26°05' W 080°07'0 0.5
2014-Jul-16 01:33N 26°06' W 080°07'1 0.4
2014-Jul-16 00:16N 26°06' W 080°07'2 2.8
2014-Jul-15 23:33N 26°06' W 080°05'2 2.0
2014-Jul-15 22:33N 26°05' W 080°07'1 0.8
2014-Jul-15 21:33N 26°04' W 080°07'1 1.5
2014-Jul-15 20:34N 26°06' W 080°07'1 0.3
2014-Jul-15 18:33N 26°06' W 080°07'1 0.7
2014-Jul-15 17:34N 26°06' W 080°07'1 0.7
2014-Jul-15 16:33N 26°06' W 080°07'2 1.9
2014-Jul-15 15:33N 26°06' W 080°05'2 1.5
2014-Jul-15 14:33N 26°05' W 080°07'1 1.2
2014-Jul-15 13:33N 26°06' W 080°07'0 0.0
2014-Jul-15 12:33N 26°06' W 080°07'1 1.0
2014-Jul-15 11:33N 26°05' W 080°07'1 0.5
2014-Jul-15 10:33N 26°06' W 080°07'1 0.6
2014-Jul-15 09:33N 26°05' W 080°07'1 0.2
2014-Jul-15 04:15N 26°06' W 080°07'2 3.0
2014-Jul-15 03:33N 26°06' W 080°05'0 0.2
2014-Jul-15 02:33N 26°06' W 080°05'2 1.6
2014-Jul-15 01:33N 26°06' W 080°07'0 0.0
2014-Jul-15 00:34N 26°06' W 080°07'0 0.1
2014-Jul-14 21:33N 26°06' W 080°07'1 0.6
2014-Jul-14 20:34N 26°05' W 080°07'1 0.5
2014-Jul-14 18:33N 26°06' W 080°07'0 0.5
2014-Jul-14 17:33N 26°06' W 080°07'1 1.0
2014-Jul-14 16:33N 26°05' W 080°07'1 1.5
2014-Jul-14 15:34N 26°06' W 080°07'0 0.0
2014-Jul-14 14:33N 26°06' W 080°07'2 1.8
2014-Jul-14 13:34N 26°06' W 080°06'1 1.4
2014-Jul-14 12:33N 26°05' W 080°07'1 0.7
2014-Jul-14 11:33N 26°06' W 080°07'0 0.1
2014-Jul-14 08:33N 26°06' W 080°07'1 1.0
2014-Jul-14 07:33N 26°05' W 080°07'1 0.9
2014-Jul-14 06:27N 26°06' W 080°07'0 0.4
2014-Jul-14 05:33N 26°06' W 080°07'0 0.1
2014-Jul-14 02:33N 26°06' W 080°07'1 0.7
2014-Jul-14 01:34N 26°06' W 080°06'1 0.3
2014-Jul-13 22:10N 26°06' W 080°07'3 4.2
2014-Jul-13 21:33N 26°05' W 080°05'1 1.5
2014-Jul-13 20:33N 26°06' W 080°06'1 0.8
2014-Jul-13 19:33N 26°05' W 080°07'3 2.9
2014-Jul-13 18:33N 26°05' W 080°04'2 2.0
2014-Jul-13 17:34N 26°06' W 080°06'1 1.0
2014-Jul-13 16:33N 26°05' W 080°07'0 0.3
2014-Jul-13 15:33N 26°05' W 080°07'0 0.3
2014-Jul-13 14:33N 26°06' W 080°07'3 2.6
2014-Jul-13 13:33N 26°05' W 080°04'3 2.6
2014-Jul-13 12:33N 26°06' W 080°07'2 2.2
2014-Jul-13 11:33N 26°06' W 080°05'1 0.9
2014-Jul-13 10:34N 26°06' W 080°06'1 1.3
2014-Jul-13 09:33N 26°06' W 080°07'5 4.9
2014-Jul-13 08:33N 26°06' W 080°02'5 0.8
2014-Jul-13 02:14N 26°06' W 080°07'2 2.8
2014-Jul-13 01:34N 26°06' W 080°05'1 0.5
2014-Jul-12 23:33N 26°06' W 080°06'1 1.4
2014-Jul-12 22:33N 26°04' W 080°07'4 3.8
2014-Jul-12 21:33N 26°05' W 080°03'4 4.1
2014-Jul-12 20:33N 26°06' W 080°07'0 0.2
2014-Jul-12 19:33N 26°06' W 080°07'1 0.9
2014-Jul-12 18:33N 26°06' W 080°06'1 1.5
2014-Jul-12 17:33N 26°04' W 080°07'1 1.0
2014-Jul-12 16:33N 26°05' W 080°07'1 0.2
2014-Jul-12 11:15N 26°06' W 080°07'1 1.1
2014-Jul-12 10:33N 26°05' W 080°07'2 2.3
2014-Jul-12 09:34N 26°06' W 080°04'2 2.5
2014-Jul-12 08:34N 26°05' W 080°07'3 2.9
2014-Jul-12 07:33N 26°06' W 080°04'3 2.7
2014-Jul-12 06:29N 26°06' W 080°07'1 0.9
2014-Jul-12 05:33N 26°06' W 080°07'1 0.5
2014-Jul-12 04:33N 26°06' W 080°06'  
Track history (hours):
 
Tides and Currents Weather Stations Pressure Air Temp Water Temp Dewpoint Dewpoint Depression Visibility Wind Speed Wind Dir Waves Ship Positions

Pilot No 5

More information available from US FCC via Universal Licensing System and Coast Guard Vessel Documentation Center.

Last reported at 2014-Jul-21 21:07 UTC. Time now 2014-Jul-23 07:50 UTC.
Position N 26°06' W 080°07'.

Length 6 m.

Type: Pilot. MMSI: 367015090.

Date/timePositionNaut miles runAvg speedWind from/ knotsBaromVisibWave heightAir tempDewpointWater temp
2014-Jul-21 21:07N 26°06' W 080°07'1 1.2
2014-Jul-21 20:33N 26°06' W 080°07'0 0.2
2014-Jul-21 20:18N 26°06' W 080°07'1 0.1
2014-Jul-21 11:28N 26°06' W 080°07'1 0.9
2014-Jul-21 10:33N 26°05' W 080°07'1 0.8
2014-Jul-21 09:33N 26°06' W 080°06'1 0.7
2014-Jul-21 08:33N 26°06' W 080°07'0 0.4
2014-Jul-21 07:33N 26°05' W 080°07'2 2.5
2014-Jul-21 06:33N 26°05' W 080°05'3 0.9
2014-Jul-21 03:33N 26°06' W 080°07'2 2.2
2014-Jul-21 02:33N 26°06' W 080°05'2 1.9
2014-Jul-21 01:33N 26°06' W 080°07'0 0.0
2014-Jul-20 19:33N 26°06' W 080°07'1 0.6
2014-Jul-20 18:33N 26°05' W 080°07'1 0.1
2014-Jul-20 13:33N 26°06' W 080°07'0 0.2
2014-Jul-20 12:33N 26°05' W 080°07'2 1.0
2014-Jul-20 10:33N 26°06' W 080°05'2 1.6
2014-Jul-20 09:33N 26°05' W 080°07'0 0.3
2014-Jul-20 08:34N 26°05' W 080°07'0 0.4
2014-Jul-20 07:32N 26°06' W 080°07'0 0.3
2014-Jul-20 06:33N 26°06' W 080°07'2 2.4
2014-Jul-20 05:33N 26°07' W 080°04'1 0.7
2014-Jul-20 03:33N 26°06' W 080°03'4 0.2
2014-Jul-19 11:28N 26°06' W 080°07'1 0.7
2014-Jul-19 10:34N 26°06' W 080°07'1 0.6
2014-Jul-19 09:33N 26°06' W 080°07'0 0.3
2014-Jul-19 08:33N 26°05' W 080°07'1 1.3
2014-Jul-19 07:33N 26°06' W 080°06'0 0.0
2014-Jul-18 07:33N 26°06' W 080°06'1 0.7
2014-Jul-18 06:33N 26°05' W 080°07'1 0.6
2014-Jul-18 05:33N 26°05' W 080°07'1 1.4
2014-Jul-18 04:33N 26°06' W 080°07'0 0.0
2014-Jul-18 03:33N 26°06' W 080°07'1 0.6
2014-Jul-18 02:34N 26°06' W 080°07'0 0.1
2014-Jul-18 01:34N 26°06' W 080°07'1 0.7
2014-Jul-18 00:33N 26°06' W 080°07'0 0.0
2014-Jul-17 23:33N 26°06' W 080°07'2 2.1
2014-Jul-17 22:33N 26°06' W 080°05'2 1.8
2014-Jul-17 21:33N 26°05' W 080°07'0 0.1
2014-Jul-17 20:33N 26°05' W 080°07'0 0.0
2014-Jul-17 19:33N 26°05' W 080°07'1 1.4
2014-Jul-17 18:33N 26°04' W 080°07'4 4.0
2014-Jul-17 17:33N 26°06' W 080°03'4 3.7
2014-Jul-17 16:33N 26°06' W 080°07'0 0.4
2014-Jul-17 15:33N 26°05' W 080°07'1 0.2
2014-Jul-17 11:29N 26°06' W 080°07'3 3.6
2014-Jul-17 10:33N 26°05' W 080°04'3 2.9
2014-Jul-17 09:33N 26°05' W 080°07'1 0.9
2014-Jul-17 08:33N 26°06' W 080°06'1 0.4
2014-Jul-17 06:33N 26°06' W 080°05'0 0.3
2014-Jul-17 05:33N 26°05' W 080°05'2 2.0
2014-Jul-17 04:33N 26°06' W 080°07'1 1.1
2014-Jul-17 03:34N 26°06' W 080°06'1 1.4
2014-Jul-17 02:33N 26°06' W 080°07'4 4.4
2014-Jul-17 01:33N 26°05' W 080°03'3 3.1
2014-Jul-17 00:33N 26°06' W 080°06'1 1.3
2014-Jul-16 23:34N 26°06' W 080°07'0 0.0
2014-Jul-16 22:33N 26°06' W 080°07'0 0.0
2014-Jul-16 21:33N 26°06' W 080°07'1 0.9
2014-Jul-16 20:33N 26°05' W 080°07'1 0.9
2014-Jul-16 19:33N 26°06' W 080°07'2 1.9
2014-Jul-16 18:33N 26°06' W 080°05'2 0.4
2014-Jul-16 13:32N 26°06' W 080°07'1 0.6
2014-Jul-16 12:34N 26°06' W 080°07'0 0.3
2014-Jul-16 11:33N 26°05' W 080°07'0 0.0
2014-Jul-16 02:33N 26°05' W 080°07'0 0.5
2014-Jul-16 01:33N 26°06' W 080°07'1 0.4
2014-Jul-16 00:16N 26°06' W 080°07'2 2.8
2014-Jul-15 23:33N 26°06' W 080°05'2 2.0
2014-Jul-15 22:33N 26°05' W 080°07'1 0.8
2014-Jul-15 21:33N 26°04' W 080°07'1 1.5
2014-Jul-15 20:34N 26°06' W 080°07'1 0.3
2014-Jul-15 18:33N 26°06' W 080°07'1 0.7
2014-Jul-15 17:34N 26°06' W 080°07'1 0.7
2014-Jul-15 16:33N 26°06' W 080°07'2 1.9
2014-Jul-15 15:33N 26°06' W 080°05'2 1.5
2014-Jul-15 14:33N 26°05' W 080°07'1 1.2
2014-Jul-15 13:33N 26°06' W 080°07'0 0.0
2014-Jul-15 12:33N 26°06' W 080°07'1 1.0
2014-Jul-15 11:33N 26°05' W 080°07'1 0.5
2014-Jul-15 10:33N 26°06' W 080°07'1 0.6
2014-Jul-15 09:33N 26°05' W 080°07'1 0.2
2014-Jul-15 04:15N 26°06' W 080°07'2 3.0
2014-Jul-15 03:33N 26°06' W 080°05'0 0.2
2014-Jul-15 02:33N 26°06' W 080°05'2 1.6
2014-Jul-15 01:33N 26°06' W 080°07'0 0.0
2014-Jul-15 00:34N 26°06' W 080°07'0 0.1
2014-Jul-14 21:33N 26°06' W 080°07'1 0.6
2014-Jul-14 20:34N 26°05' W 080°07'1 0.5
2014-Jul-14 18:33N 26°06' W 080°07'0 0.5
2014-Jul-14 17:33N 26°06' W 080°07'1 1.0
2014-Jul-14 16:33N 26°05' W 080°07'1 1.5
2014-Jul-14 15:34N 26°06' W 080°07'0 0.0
2014-Jul-14 14:33N 26°06' W 080°07'2 1.8
2014-Jul-14 13:34N 26°06' W 080°06'1 1.4
2014-Jul-14 12:33N 26°05' W 080°07'1 0.7
2014-Jul-14 11:33N 26°06' W 080°07'0 0.1
2014-Jul-14 08:33N 26°06' W 080°07'1 1.0
2014-Jul-14 07:33N 26°05' W 080°07'1 0.9
2014-Jul-14 06:27N 26°06' W 080°07'0 0.4
2014-Jul-14 05:33N 26°06' W 080°07'0 0.1
2014-Jul-14 02:33N 26°06' W 080°07'1 0.7
2014-Jul-14 01:34N 26°06' W 080°06'1 0.3
2014-Jul-13 22:10N 26°06' W 080°07'3 4.2
2014-Jul-13 21:33N 26°05' W 080°05'1 1.5
2014-Jul-13 20:33N 26°06' W 080°06'1 0.8
2014-Jul-13 19:33N 26°05' W 080°07'3 2.9
2014-Jul-13 18:33N 26°05' W 080°04'2 2.0
2014-Jul-13 17:34N 26°06' W 080°06'1 1.0
2014-Jul-13 16:33N 26°05' W 080°07'0 0.3
2014-Jul-13 15:33N 26°05' W 080°07'0 0.3
2014-Jul-13 14:33N 26°06' W 080°07'3 2.6
2014-Jul-13 13:33N 26°05' W 080°04'3 2.6
2014-Jul-13 12:33N 26°06' W 080°07'2 2.2
2014-Jul-13 11:33N 26°06' W 080°05'1 0.9
2014-Jul-13 10:34N 26°06' W 080°06'1 1.3
2014-Jul-13 09:33N 26°06' W 080°07'5 4.9
2014-Jul-13 08:33N 26°06' W 080°02'5 0.8
2014-Jul-13 02:14N 26°06' W 080°07'2 2.8
2014-Jul-13 01:34N 26°06' W 080°05'1 0.5
2014-Jul-12 23:33N 26°06' W 080°06'1 1.4
2014-Jul-12 22:33N 26°04' W 080°07'4 3.8
2014-Jul-12 21:33N 26°05' W 080°03'4 4.1
2014-Jul-12 20:33N 26°06' W 080°07'0 0.2
2014-Jul-12 19:33N 26°06' W 080°07'1 0.9
2014-Jul-12 18:33N 26°06' W 080°06'1 1.5
2014-Jul-12 17:33N 26°04' W 080°07'1 1.0
2014-Jul-12 16:33N 26°05' W 080°07'1 0.2
2014-Jul-12 11:15N 26°06' W 080°07'1 1.1
2014-Jul-12 10:33N 26°05' W 080°07'2 2.3
2014-Jul-12 09:34N 26°06' W 080°04'2 2.5
2014-Jul-12 08:34N 26°05' W 080°07'3 2.9
2014-Jul-12 07:33N 26°06' W 080°04'3 2.7
2014-Jul-12 06:29N 26°06' W 080°07'1 0.9
2014-Jul-12 05:33N 26°06' W 080°07'1 0.5
2014-Jul-12 04:33N 26°06' W 080°06'  

Dump ship's entire track history